| time (UTC) | temp F | wind direction | speed knots | gust knots | rain 1hr in | rain 24hr in | rain mn in | humidity % | barometer mb |
| 20260903164420 | 91 | 25 | 0.0 | 0.9 | 0.00 | 0.00 | 0.00 | 62 | 1014.7 |
| 20260903163919 | 88 | 273 | 1.7 | 1.7 | 0.00 | 0.00 | 0.00 | 65 | 1014.6 |
| 20260903163415 | 87 | 332 | 0.9 | 0.9 | 0.00 | 0.00 | 0.00 | 68 | 1014.5 |
| 20260903162911 | 87 | 288 | 2.6 | 3.5 | 0.00 | 0.00 | 0.00 | 68 | 1014.7 |
| 20260903162408 | 87 | 75 | 2.6 | 2.6 | 0.00 | 0.00 | 0.00 | 68 | 1014.8 |
| 20260903161903 | 86 | 62 | 1.7 | 1.7 | 0.00 | 0.00 | 0.00 | 70 | 1014.7 |
| 20260903161358 | 86 | 72 | 2.6 | 2.6 | 0.00 | 0.00 | 0.00 | 70 | 1014.6 |
| 20260903160854 | 86 | 63 | 3.5 | 3.5 | 0.00 | 0.00 | 0.00 | 70 | 1014.9 |
| 20260903160352 | 87 | 23 | 1.7 | 1.7 | 0.00 | 0.00 | 0.00 | 69 | 1014.7 |
| 20260903155851 | 88 | 29 | 1.7 | 1.7 | 0.00 | 0.00 | 0.00 | 67 | 1014.8 |
| 20260903155347 | 89 | 72 | 1.7 | 1.7 | 0.00 | 0.00 | 0.00 | 66 | 1014.9 |
| 20260903154843 | 87 | 1 | 0.9 | 0.9 | 0.00 | 0.00 | 0.00 | 67 | 1014.9 |
| 20260903154339 | 85 | 41 | 2.6 | 2.6 | 0.00 | 0.00 | 0.00 | 69 | 1015.0 |
| 20260903153839 | 85 | 21 | 1.7 | 2.6 | 0.00 | 0.00 | 0.00 | 69 | 1015.0 |
| 20260903153335 | 85 | 68 | 1.7 | 1.7 | 0.00 | 0.00 | 0.00 | 71 | 1014.8 |
| 20260903152831 | 85 | 32 | 1.7 | 3.5 | 0.00 | 0.00 | 0.00 | 69 | 1015.0 |
| 20260903152327 | 86 | 353 | 0.9 | 0.9 | 0.00 | 0.00 | 0.00 | 70 | 1014.8 |
| 20260903151821 | 84 | 37 | 1.7 | 2.6 | 0.00 | 0.00 | 0.00 | 71 | 1015.0 |
| 20260903151318 | 84 | 37 | 1.7 | 1.7 | 0.00 | 0.00 | 0.00 | 71 | 1015.0 |
| 20260903150817 | 83 | 355 | 0.9 | 1.7 | 0.00 | 0.00 | 0.00 | 74 | 1014.9 |
| 20260903150317 | 83 | 355 | 0.9 | 0.9 | 0.00 | 0.00 | 0.00 | 74 | 1014.9 |
| 20260903145812 | 83 | 68 | 1.7 | 2.6 | 0.00 | 0.00 | 0.00 | 74 | 1015.0 |
| 20260903145307 | 83 | 34 | 3.5 | 3.5 | 0.00 | 0.00 | 0.00 | 75 | 1015.1 |
| 20260903144806 | 82 | 335 | 0.9 | 1.7 | 0.00 | 0.00 | 0.00 | 76 | 1015.0 |
| 20260903144302 | 83 | 349 | 3.5 | 3.5 | 0.00 | 0.00 | 0.00 | 75 | 1015.1 |
| 20260903143757 | 83 | 346 | 0.9 | 1.7 | 0.00 | 0.00 | 0.00 | 74 | 1015.0 |
| 20260903143253 | 82 | 338 | 2.6 | 3.5 | 0.00 | 0.00 | 0.00 | 76 | 1015.0 |
| 20260903142749 | 83 | 67 | 3.5 | 3.5 | 0.00 | 0.00 | 0.00 | 75 | 1014.8 |
| 20260903142245 | 83 | 8 | 1.7 | 2.6 | 0.00 | 0.00 | 0.00 | 75 | 1015.1 |
| 20260903141741 | 83 | 345 | 1.7 | 2.6 | 0.00 | 0.00 | 0.00 | 75 | 1015.0 |
| 20260903141236 | 83 | 357 | 1.7 | 2.6 | 0.00 | 0.00 | 0.00 | 74 | 1015.1 |
| 20260903140732 | 82 | 318 | 0.9 | 0.9 | 0.00 | 0.00 | 0.00 | 76 | 1014.9 |
| 20260903140231 | 82 | 340 | 1.7 | 2.6 | 0.00 | 0.00 | 0.00 | 77 | 1014.9 |
| 20260903135728 | 80 | 330 | 2.6 | 3.5 | 0.00 | 0.00 | 0.00 | 79 | 1015.0 |
| 20260903135223 | 80 | 350 | 3.5 | 3.5 | 0.00 | 0.00 | 0.00 | 80 | 1015.3 |
| 20260903134721 | 80 | 11 | 3.5 | 3.5 | 0.00 | 0.00 | 0.00 | 82 | 1015.4 |
| 20260903134217 | 80 | 313 | 3.5 | 3.5 | 0.00 | 0.00 | 0.00 | 81 | 1015.1 |
| 20260903133715 | 79 | 326 | 2.6 | 2.6 | 0.00 | 0.00 | 0.00 | 82 | 1014.9 |
| 20260903133212 | 79 | 338 | 8.7 | 11.3 | 0.00 | 0.00 | 0.00 | 84 | 1015.4 |
| 20260903132711 | 78 | 349 | 0.0 | 0.0 | 0.00 | 0.00 | 0.00 | 85 | 1014.8 |
| 20260903132206 | 78 | 326 | 5.2 | 7.8 | 0.00 | 0.00 | 0.00 | 84 | 1015.2 |
| 20260903131701 | 78 | 319 | 1.7 | 1.7 | 0.00 | 0.00 | 0.00 | 83 | 1014.5 |
| 20260903131155 | 79 | 277 | 1.7 | 1.7 | 0.00 | 0.00 | 0.00 | 83 | 1014.4 |
| 20260903130650 | 79 | 322 | 1.7 | 1.7 | 0.00 | 0.00 | 0.00 | 83 | 1014.3 |
| 20260903130149 | 79 | 267 | 1.7 | 2.6 | 0.00 | 0.00 | 0.00 | 82 | 1014.3 |
| 20260903125648 | 78 | 236 | 2.6 | 3.5 | 0.00 | 0.00 | 0.00 | 83 | 1014.2 |
| 20260903125144 | 78 | 319 | 1.7 | 1.7 | 0.00 | 0.00 | 0.00 | 83 | 1014.1 |
| 20260903124638 | 78 | 311 | 1.7 | 1.7 | 0.00 | 0.00 | 0.00 | 84 | 1014.4 |
| 20260903124137 | 78 | 241 | 2.6 | 2.6 | 0.00 | 0.00 | 0.00 | 84 | 1014.1 |
| 20260903123637 | 77 | 297 | 1.7 | 1.7 | 0.00 | 0.00 | 0.00 | 84 | 1014.1 |
| 20260903123136 | 78 | 309 | 0.9 | 1.7 | 0.00 | 0.00 | 0.00 | 84 | 1014.1 |
| 20260903122636 | 77 | 286 | 1.7 | 1.7 | 0.00 | 0.00 | 0.00 | 85 | 1014.2 |
| 20260903122130 | 77 | 306 | 1.7 | 1.7 | 0.00 | 0.00 | 0.00 | 85 | 1014.3 |
| 20260903121629 | 77 | 306 | 1.7 | 1.7 | 0.00 | 0.00 | 0.00 | 85 | 1014.1 |
| 20260903121125 | 77 | 317 | 1.7 | 1.7 | 0.00 | 0.00 | 0.00 | 85 | 1014.1 |
| 20260903120624 | 77 | 230 | 2.6 | 2.6 | 0.00 | 0.00 | 0.00 | 85 | 1014.0 |
| 20260903120119 | 77 | 343 | 0.9 | 0.9 | 0.00 | 0.00 | 0.00 | 85 | 1014.0 |
| 20260903115617 | 77 | 339 | 0.0 | 0.0 | 0.00 | 0.00 | 0.00 | 85 | 1014.0 |
| 20260903115113 | 77 | 346 | 0.0 | 0.9 | 0.00 | 0.00 | 0.00 | 85 | 1013.9 |
| 20260903114608 | 77 | 309 | 1.7 | 1.7 | 0.00 | 0.00 | 0.00 | 85 | 1014.0 |
| 20260903114103 | 77 | 330 | 0.0 | 0.0 | 0.00 | 0.00 | 0.00 | 86 | 1014.0 |
| 20260903113558 | 77 | 332 | 0.9 | 0.9 | 0.00 | 0.00 | 0.00 | 86 | 1013.9 |
| 20260903113054 | 77 | 299 | 1.7 | 2.6 | 0.00 | 0.00 | 0.00 | 86 | 1013.9 |
| 20260903112550 | 77 | 337 | 0.0 | 0.0 | 0.00 | 0.00 | 0.00 | 86 | 1013.7 |
| 20260903112050 | 77 | 311 | 1.7 | 1.7 | 0.00 | 0.00 | 0.00 | 86 | 1013.5 |
| 20260903111549 | 77 | 303 | 1.7 | 1.7 | 0.00 | 0.00 | 0.00 | 86 | 1013.7 |
| 20260903111040 | 77 | 345 | 0.0 | 0.0 | 0.00 | 0.00 | 0.00 | 87 | 1013.6 |
| 20260903110536 | 77 | 338 | 0.0 | 0.0 | 0.00 | 0.00 | 0.00 | 87 | 1013.5 |
| 20260903110036 | 77 | 341 | 0.9 | 0.9 | 0.00 | 0.00 | 0.00 | 86 | 1013.7 |
| 20260903105531 | 77 | 229 | 1.7 | 1.7 | 0.00 | 0.00 | 0.00 | 86 | 1013.5 |
| 20260903105025 | 77 | 331 | 0.9 | 1.7 | 0.00 | 0.00 | 0.00 | 86 | 1013.7 |
| 20260903104519 | 77 | 335 | 0.0 | 0.9 | 0.00 | 0.00 | 0.00 | 86 | 1013.7 |
| 20260903104015 | 77 | 313 | 0.9 | 1.7 | 0.00 | 0.00 | 0.00 | 86 | 1013.5 |
| 20260903103511 | 77 | 326 | 0.9 | 0.9 | 0.00 | 0.00 | 0.00 | 86 | 1013.6 |
| 20260903103007 | 77 | 311 | 0.9 | 0.9 | 0.00 | 0.00 | 0.00 | 86 | 1013.5 |
| 20260903102502 | 77 | 342 | 0.9 | 0.9 | 0.00 | 0.00 | 0.00 | 86 | 1013.7 |
| 20260903102000 | 77 | 304 | 0.9 | 0.9 | 0.00 | 0.00 | 0.00 | 87 | 1013.9 |
| 20260903101455 | 77 | 334 | 0.9 | 0.9 | 0.00 | 0.00 | 0.00 | 87 | 1013.6 |
| 20260903100951 | 77 | 347 | 0.0 | 0.0 | 0.00 | 0.00 | 0.00 | 87 | 1013.6 |
| 20260903100447 | 77 | 339 | 0.9 | 0.9 | 0.00 | 0.00 | 0.00 | 87 | 1013.7 |
| 20260903095944 | 77 | 341 | 0.9 | 0.9 | 0.00 | 0.00 | 0.00 | 87 | 1013.6 |
| 20260903095443 | 77 | 330 | 0.0 | 0.9 | 0.00 | 0.00 | 0.00 | 87 | 1013.7 |
| 20260903094939 | 77 | 341 | 0.0 | 0.0 | 0.00 | 0.00 | 0.00 | 87 | 1013.6 |
| 20260903094438 | 77 | 331 | 0.9 | 0.9 | 0.00 | 0.00 | 0.00 | 88 | 1013.7 |
| 20260903093935 | 77 | 316 | 0.0 | 0.9 | 0.00 | 0.00 | 0.00 | 88 | 1013.7 |
| 20260903093429 | 77 | 314 | 0.9 | 0.9 | 0.00 | 0.00 | 0.00 | 88 | 1013.6 |
| 20260903092925 | 77 | 336 | 0.0 | 0.0 | 0.00 | 0.00 | 0.00 | 88 | 1013.6 |
| 20260903092425 | 77 | 310 | 0.9 | 0.9 | 0.00 | 0.00 | 0.00 | 88 | 1013.5 |
| 20260903091924 | 77 | 333 | 0.9 | 0.9 | 0.00 | 0.00 | 0.00 | 87 | 1013.7 |
| 20260903091422 | 77 | 308 | 0.9 | 1.7 | 0.00 | 0.00 | 0.00 | 88 | 1013.6 |
| 20260903090918 | 77 | 341 | 0.0 | 0.0 | 0.00 | 0.00 | 0.00 | 88 | 1013.7 |
| 20260903090413 | 77 | 329 | 0.0 | 0.9 | 0.00 | 0.00 | 0.00 | 88 | 1013.6 |
| 20260903085912 | 77 | 329 | 0.0 | 0.9 | 0.00 | 0.00 | 0.00 | 88 | 1013.5 |
| 20260903085410 | 77 | 339 | 0.0 | 0.9 | 0.00 | 0.00 | 0.00 | 88 | 1013.7 |
| 20260903084910 | 77 | 318 | 0.0 | 0.9 | 0.00 | 0.00 | 0.00 | 88 | 1013.6 |
| 20260903084409 | 77 | 325 | 0.9 | 0.9 | 0.00 | 0.00 | 0.00 | 88 | 1013.7 |
| 20260903083904 | 77 | 340 | 0.0 | 0.9 | 0.00 | 0.00 | 0.00 | 88 | 1013.6 |
| 20260903083400 | 77 | 343 | 0.0 | 0.0 | 0.00 | 0.00 | 0.00 | 88 | 1013.6 |
| 20260903082859 | 77 | 341 | 0.9 | 0.9 | 0.00 | 0.00 | 0.00 | 88 | 1013.6 |
| 20260903082354 | 78 | 8 | 0.9 | 0.9 | 0.00 | 0.00 | 0.00 | 88 | 1013.6 |
| 20260903081849 | 78 | 345 | 0.0 | 0.0 | 0.00 | 0.00 | 0.00 | 88 | 1013.5 |
| 20260903081344 | 78 | 336 | 0.0 | 0.0 | 0.00 | 0.00 | 0.00 | 88 | 1013.4 |
| 20260903080841 | 78 | 325 | 0.0 | 0.9 | 0.00 | 0.00 | 0.00 | 88 | 1013.5 |
| 20260903080338 | 78 | 330 | 0.0 | 0.9 | 0.00 | 0.00 | 0.00 | 88 | 1013.5 |
| 20260903075837 | 78 | 309 | 0.9 | 1.7 | 0.00 | 0.00 | 0.00 | 88 | 1013.4 |
| 20260903075333 | 78 | 325 | 0.9 | 0.9 | 0.00 | 0.00 | 0.00 | 88 | 1013.4 |
| 20260903074827 | 78 | 344 | 0.0 | 0.0 | 0.00 | 0.00 | 0.00 | 89 | 1013.6 |
| 20260903074327 | 78 | 335 | 0.0 | 0.0 | 0.00 | 0.00 | 0.00 | 89 | 1013.5 |
| 20260903073822 | 78 | 340 | 0.0 | 0.9 | 0.00 | 0.00 | 0.00 | 89 | 1013.4 |
| 20260903073317 | 78 | 273 | 1.7 | 1.7 | 0.00 | 0.00 | 0.00 | 89 | 1013.5 |
| 20260903072813 | 78 | 20 | 0.0 | 0.9 | 0.00 | 0.00 | 0.00 | 89 | 1013.5 |
| 20260903072309 | 78 | 335 | 0.0 | 0.9 | 0.00 | 0.00 | 0.00 | 89 | 1013.5 |
| 20260903071807 | 78 | 345 | 0.0 | 0.0 | 0.00 | 0.00 | 0.00 | 90 | 1013.5 |
| 20260903071302 | 78 | 341 | 0.0 | 0.0 | 0.00 | 0.00 | 0.00 | 90 | 1013.6 |
| 20260903070801 | 78 | 337 | 0.0 | 0.0 | 0.00 | 0.00 | 0.00 | 90 | 1013.5 |
| 20260903070257 | 78 | 26 | 0.9 | 0.9 | 0.00 | 0.00 | 0.00 | 90 | 1013.7 |
| 20260903065747 | 78 | 345 | 0.9 | 0.9 | 0.00 | 0.00 | 0.00 | 90 | 1013.7 |
| 20260903065246 | 78 | 350 | 0.9 | 0.9 | 0.00 | 0.00 | 0.00 | 90 | 1013.6 |
| 20260903064745 | 78 | 355 | 0.0 | 0.0 | 0.00 | 0.00 | 0.00 | 91 | 1013.6 |
| 20260903064240 | 78 | 353 | 0.0 | 0.0 | 0.00 | 0.00 | 0.00 | 91 | 1013.6 |
| 20260903063736 | 78 | 345 | 0.0 | 0.0 | 0.00 | 0.00 | 0.00 | 91 | 1013.7 |
| 20260903063231 | 79 | 352 | 0.0 | 0.9 | 0.00 | 0.00 | 0.00 | 91 | 1013.9 |
| 20260903062727 | 79 | 352 | 0.0 | 0.0 | 0.00 | 0.00 | 0.00 | 91 | 1013.7 |
| 20260903062226 | 79 | 351 | 0.0 | 0.0 | 0.00 | 0.00 | 0.00 | 91 | 1013.9 |
| 20260903061723 | 79 | 350 | 0.0 | 0.0 | 0.00 | 0.00 | 0.00 | 91 | 1014.1 |
| 20260903061221 | 79 | 343 | 0.0 | 0.0 | 0.00 | 0.00 | 0.00 | 90 | 1014.0 |
| 20260903060717 | 79 | 352 | 0.0 | 0.0 | 0.00 | 0.00 | 0.00 | 89 | 1014.1 |
| 20260903060217 | 80 | 2 | 0.0 | 0.9 | 0.00 | 0.00 | 0.00 | 89 | 1013.9 |
| 20260903055715 | 80 | 335 | 0.0 | 0.9 | 0.00 | 0.00 | 0.00 | 88 | 1013.9 |
| 20260903055214 | 80 | 350 | 0.0 | 0.9 | 0.00 | 0.00 | 0.00 | 88 | 1013.7 |
| 20260903054708 | 80 | 348 | 0.0 | 0.0 | 0.00 | 0.00 | 0.00 | 88 | 1013.7 |
| 20260903054204 | 80 | 9 | 0.9 | 0.9 | 0.00 | 0.00 | 0.00 | 88 | 1013.9 |
| 20260903053700 | 80 | 337 | 0.9 | 0.9 | 0.00 | 0.00 | 0.00 | 88 | 1013.9 |
| 20260903053150 | 80 | 345 | 0.0 | 0.9 | 0.00 | 0.00 | 0.00 | 88 | 1013.9 |
| 20260903052646 | 80 | 348 | 0.0 | 0.0 | 0.00 | 0.00 | 0.00 | 88 | 1013.9 |
| 20260903052141 | 80 | 353 | 0.0 | 0.0 | 0.00 | 0.00 | 0.00 | 88 | 1013.9 |
| 20260903051636 | 80 | 349 | 0.9 | 0.9 | 0.00 | 0.00 | 0.00 | 88 | 1013.7 |
| 20260903051131 | 80 | 353 | 0.0 | 0.0 | 0.00 | 0.00 | 0.00 | 88 | 1013.9 |
| 20260903050626 | 81 | 6 | 0.9 | 0.9 | 0.00 | 0.00 | 0.00 | 88 | 1013.7 |
| 20260903050126 | 81 | 350 | 0.9 | 0.9 | 0.00 | 0.00 | 0.00 | 87 | 1013.9 |
| 20260903045625 | 81 | 355 | 0.0 | 0.9 | 0.00 | 0.00 | 0.00 | 87 | 1013.9 |
| 20260903045122 | 81 | 351 | 0.0 | 0.0 | 0.00 | 0.00 | 0.00 | 88 | 1014.0 |
| 20260903044617 | 81 | 350 | 0.0 | 0.0 | 0.00 | 0.00 | 0.00 | 88 | 1013.9 |
| 20260903044113 | 81 | 350 | 0.0 | 0.0 | 0.00 | 0.00 | 0.00 | 87 | 1014.0 |
| 20260903043609 | 81 | 0 | 0.9 | 0.9 | 0.00 | 0.00 | 0.00 | 87 | 1014.1 |
| 20260903043108 | 81 | 352 | 0.9 | 0.9 | 0.00 | 0.00 | 0.00 | 87 | 1014.1 |
| 20260903042603 | 81 | 353 | 0.0 | 0.0 | 0.00 | 0.00 | 0.00 | 87 | 1014.0 |
| 20260903042058 | 81 | 343 | 0.0 | 0.0 | 0.00 | 0.00 | 0.00 | 87 | 1013.9 |
| 20260903041555 | 81 | 355 | 0.9 | 0.9 | 0.00 | 0.00 | 0.00 | 87 | 1014.0 |
| 20260903041050 | 81 | 20 | 0.9 | 0.9 | 0.00 | 0.00 | 0.00 | 87 | 1014.0 |
| 20260903040549 | 82 | 348 | 2.6 | 2.6 | 0.00 | 0.00 | 0.00 | 85 | 1013.9 |
| 20260903040046 | 82 | 285 | 1.7 | 1.7 | 0.00 | 0.00 | 0.00 | 85 | 1013.9 |
| 20260903035541 | 82 | 310 | 0.9 | 1.7 | 0.00 | 0.00 | 0.00 | 84 | 1013.6 |
| 20260903035037 | 82 | 212 | 3.5 | 5.2 | 0.00 | 0.00 | 0.00 | 84 | 1013.9 |
| 20260903034537 | 82 | 304 | 1.7 | 1.7 | 0.00 | 0.00 | 0.00 | 84 | 1013.7 |
| 20260903034032 | 83 | 263 | 2.6 | 2.6 | 0.00 | 0.00 | 0.00 | 83 | 1013.9 |
| 20260903033527 | 83 | 254 | 2.6 | 2.6 | 0.00 | 0.00 | 0.00 | 82 | 1013.9 |
| 20260903033022 | 83 | 265 | 2.6 | 2.6 | 0.00 | 0.00 | 0.00 | 82 | 1013.6 |
| 20260903032517 | 84 | 314 | 0.9 | 0.9 | 0.00 | 0.00 | 0.00 | 81 | 1013.9 |
| 20260903032012 | 84 | 293 | 1.7 | 1.7 | 0.00 | 0.00 | 0.00 | 81 | 1013.6 |
| 20260903031507 | 84 | 333 | 1.7 | 1.7 | 0.00 | 0.00 | 0.00 | 80 | 1013.7 |
| 20260903031002 | 84 | 307 | 0.9 | 1.7 | 0.00 | 0.00 | 0.00 | 80 | 1013.7 |
| 20260903030457 | 84 | 296 | 0.9 | 1.7 | 0.00 | 0.00 | 0.00 | 80 | 1013.7 |
| 20260903025953 | 84 | 285 | 1.7 | 1.7 | 0.00 | 0.00 | 0.00 | 80 | 1013.9 |
| 20260903025443 | 84 | 216 | 1.7 | 2.6 | 0.00 | 0.00 | 0.00 | 79 | 1013.9 |
| 20260903024938 | 84 | 309 | 1.7 | 2.6 | 0.00 | 0.00 | 0.00 | 79 | 1013.9 |
| 20260903024431 | 84 | 310 | 0.0 | 0.9 | 0.00 | 0.00 | 0.00 | 79 | 1014.0 |
| 20260903023926 | 84 | 319 | 0.9 | 0.9 | 0.00 | 0.00 | 0.00 | 78 | 1013.9 |
| 20260903023423 | 84 | 312 | 1.7 | 1.7 | 0.00 | 0.00 | 0.00 | 78 | 1013.5 |
| 20260903022918 | 85 | 284 | 1.7 | 2.6 | 0.00 | 0.00 | 0.00 | 78 | 1013.6 |
| 20260903022416 | 85 | 322 | 0.9 | 0.9 | 0.00 | 0.00 | 0.00 | 77 | 1013.6 |
| 20260903021914 | 85 | 265 | 0.9 | 1.7 | 0.00 | 0.00 | 0.00 | 77 | 1013.3 |
| 20260903021411 | 85 | 265 | 1.7 | 2.6 | 0.00 | 0.00 | 0.00 | 77 | 1013.4 |
| 20260903020910 | 85 | 255 | 1.7 | 1.7 | 0.00 | 0.00 | 0.00 | 77 | 1013.3 |
| 20260903020407 | 85 | 311 | 1.7 | 1.7 | 0.00 | 0.00 | 0.00 | 77 | 1013.3 |
| 20260903015901 | 85 | 271 | 1.7 | 1.7 | 0.00 | 0.00 | 0.00 | 76 | 1013.0 |
| 20260903015356 | 85 | 294 | 1.7 | 1.7 | 0.00 | 0.00 | 0.00 | 76 | 1013.1 |
| 20260903014851 | 85 | 320 | 2.6 | 2.6 | 0.00 | 0.00 | 0.00 | 76 | 1013.0 |
| 20260903014345 | 85 | 254 | 1.7 | 2.6 | 0.00 | 0.00 | 0.00 | 76 | 1013.1 |
| 20260903013840 | 85 | 262 | 3.5 | 3.5 | 0.00 | 0.00 | 0.00 | 76 | 1012.9 |
| 20260903013339 | 85 | 268 | 2.6 | 2.6 | 0.00 | 0.00 | 0.00 | 76 | 1012.8 |
| 20260903012839 | 85 | 219 | 2.6 | 3.5 | 0.00 | 0.00 | 0.00 | 77 | 1012.6 |
| 20260903012333 | 85 | 236 | 3.5 | 5.2 | 0.00 | 0.00 | 0.00 | 78 | 1012.6 |
| 20260903011827 | 85 | 259 | 1.7 | 2.6 | 0.00 | 0.00 | 0.00 | 79 | 1012.7 |
| 20260903011327 | 86 | 170 | 1.7 | 2.6 | 0.00 | 0.00 | 0.00 | 79 | 1012.4 |
| 20260903010822 | 86 | 335 | 1.7 | 1.7 | 0.00 | 0.00 | 0.00 | 76 | 1012.7 |
| 20260903010318 | 86 | 301 | 1.7 | 1.7 | 0.00 | 0.00 | 0.00 | 77 | 1012.8 |
| 20260903005815 | 87 | 204 | 2.6 | 2.6 | 0.00 | 0.00 | 0.00 | 76 | 1012.7 |
| 20260903005310 | 87 | 14 | 1.7 | 1.7 | 0.00 | 0.00 | 0.00 | 75 | 1012.6 |
| 20260903004801 | 88 | 340 | 0.0 | 0.9 | 0.00 | 0.00 | 0.00 | 74 | 1012.7 |
| 20260903004256 | 88 | 310 | 1.7 | 1.7 | 0.00 | 0.00 | 0.00 | 72 | 1012.8 |
| 20260903003752 | 88 | 322 | 1.7 | 1.7 | 0.00 | 0.00 | 0.00 | 71 | 1013.1 |
| 20260903003252 | 88 | 302 | 1.7 | 1.7 | 0.00 | 0.00 | 0.00 | 71 | 1012.7 |
| 20260903002746 | 88 | 289 | 1.7 | 1.7 | 0.00 | 0.00 | 0.00 | 71 | 1012.9 |
| 20260903002241 | 89 | 278 | 2.6 | 2.6 | 0.00 | 0.00 | 0.00 | 70 | 1013.1 |
| 20260903001736 | 89 | 304 | 1.7 | 1.7 | 0.00 | 0.00 | 0.00 | 70 | 1012.9 |
| 20260903001231 | 89 | 288 | 1.7 | 1.7 | 0.00 | 0.00 | 0.00 | 69 | 1013.0 |
| 20260903000726 | 89 | 293 | 3.5 | 3.5 | 0.00 | 0.00 | 0.00 | 70 | 1012.7 |
| 20260903000226 | 89 | 323 | 1.7 | 1.7 | 0.00 | 0.00 | 0.00 | 69 | 1012.9 |
| 20260902235724 | 89 | 291 | 3.5 | 5.2 | 0.00 | 0.00 | 0.00 | 69 | 1013.0 |
| 20260902235220 | 89 | 265 | 3.5 | 5.2 | 0.00 | 0.00 | 0.00 | 70 | 1012.9 |
| 20260902234719 | 89 | 277 | 3.5 | 5.2 | 0.00 | 0.00 | 0.00 | 69 | 1013.1 |
| 20260902234218 | 90 | 285 | 2.6 | 3.5 | 0.00 | 0.00 | 0.00 | 68 | 1013.1 |
| 20260902233717 | 90 | 300 | 1.7 | 1.7 | 0.00 | 0.00 | 0.00 | 68 | 1013.0 |
| 20260902233212 | 90 | 248 | 4.3 | 6.1 | 0.00 | 0.00 | 0.00 | 67 | 1013.1 |
| 20260902232711 | 90 | 337 | 1.7 | 2.6 | 0.00 | 0.00 | 0.00 | 66 | 1013.0 |
| 20260902232210 | 90 | 232 | 4.3 | 6.1 | 0.00 | 0.00 | 0.00 | 65 | 1013.2 |
| 20260902231705 | 91 | 262 | 5.2 | 6.1 | 0.00 | 0.00 | 0.00 | 65 | 1013.0 |
| 20260902231159 | 91 | 233 | 3.5 | 3.5 | 0.00 | 0.00 | 0.00 | 65 | 1013.0 |
| 20260902230655 | 91 | 275 | 2.6 | 2.6 | 0.00 | 0.00 | 0.00 | 65 | 1013.1 |
| 20260902230153 | 92 | 230 | 4.3 | 6.1 | 0.00 | 0.00 | 0.00 | 64 | 1013.1 |
| 20260902225648 | 92 | 337 | 2.6 | 2.6 | 0.00 | 0.00 | 0.00 | 63 | 1013.0 |
| 20260902225143 | 93 | 229 | 3.5 | 3.5 | 0.00 | 0.00 | 0.00 | 62 | 1013.1 |
| 20260902224642 | 94 | 295 | 2.6 | 3.5 | 0.00 | 0.00 | 0.00 | 59 | 1012.9 |
| 20260902224138 | 93 | 266 | 2.6 | 2.6 | 0.00 | 0.00 | 0.00 | 59 | 1012.8 |
| 20260902223634 | 93 | 215 | 2.6 | 2.6 | 0.00 | 0.00 | 0.00 | 59 | 1012.9 |
| 20260902223132 | 93 | 260 | 3.5 | 3.5 | 0.00 | 0.00 | 0.00 | 58 | 1012.9 |
| 20260902222631 | 94 | 327 | 0.9 | 0.9 | 0.00 | 0.00 | 0.00 | 56 | 1012.9 |
| 20260902222130 | 94 | 260 | 2.6 | 3.5 | 0.00 | 0.00 | 0.00 | 55 | 1013.0 |
| 20260902221624 | 95 | 335 | 1.7 | 2.6 | 0.00 | 0.00 | 0.00 | 54 | 1013.1 |
| 20260902221120 | 97 | 315 | 2.6 | 2.6 | 0.00 | 0.00 | 0.00 | 51 | 1013.1 |
| 20260902220616 | 96 | 304 | 0.9 | 1.7 | 0.00 | 0.00 | 0.00 | 51 | 1013.1 |
| 20260902220110 | 95 | 256 | 1.7 | 2.6 | 0.00 | 0.00 | 0.00 | 53 | 1013.2 |
| 20260902215606 | 96 | 260 | 3.5 | 3.5 | 0.00 | 0.00 | 0.00 | 52 | 1013.2 |
| 20260902215101 | 95 | 325 | 1.7 | 1.7 | 0.00 | 0.00 | 0.00 | 53 | 1013.2 |
| 20260902214555 | 96 | 340 | 3.5 | 3.5 | 0.00 | 0.00 | 0.00 | 52 | 1013.5 |
| 20260902214054 | 94 | 338 | 1.7 | 2.6 | 0.00 | 0.00 | 0.00 | 53 | 1013.4 |
| 20260902213550 | 94 | 295 | 1.7 | 2.6 | 0.00 | 0.00 | 0.00 | 54 | 1013.4 |
| 20260902213049 | 96 | 309 | 3.5 | 3.5 | 0.00 | 0.00 | 0.00 | 53 | 1013.5 |
| 20260902212545 | 94 | 285 | 4.3 | 5.2 | 0.00 | 0.00 | 0.00 | 54 | 1013.5 |
| 20260902212041 | 94 | 323 | 3.5 | 3.5 | 0.00 | 0.00 | 0.00 | 55 | 1013.5 |
| 20260902211537 | 95 | 298 | 2.6 | 2.6 | 0.00 | 0.00 | 0.00 | 54 | 1013.9 |
| 20260902211032 | 95 | 336 | 5.2 | 6.1 | 0.00 | 0.00 | 0.00 | 55 | 1013.6 |
| 20260902210531 | 95 | 309 | 1.7 | 1.7 | 0.00 | 0.00 | 0.00 | 55 | 1013.7 |
| 20260902210026 | 95 | 333 | 1.7 | 2.6 | 0.00 | 0.00 | 0.00 | 54 | 1013.7 |
| 20260902205520 | 94 | 340 | 1.7 | 2.6 | 0.00 | 0.00 | 0.00 | 54 | 1014.0 |
| 20260902205016 | 95 | 318 | 3.5 | 3.5 | 0.00 | 0.00 | 0.00 | 53 | 1013.7 |
| 20260902204515 | 95 | 257 | 2.6 | 2.6 | 0.00 | 0.00 | 0.00 | 52 | 1013.7 |
| 20260902204011 | 96 | 274 | 1.7 | 2.6 | 0.00 | 0.00 | 0.00 | 52 | 1013.6 |
| 20260902203506 | 96 | 45 | 1.7 | 2.6 | 0.00 | 0.00 | 0.00 | 51 | 1013.5 |
| 20260902203005 | 96 | 254 | 5.2 | 6.1 | 0.00 | 0.00 | 0.00 | 52 | 1013.6 |
| 20260902202501 | 96 | 326 | 6.1 | 6.1 | 0.00 | 0.00 | 0.00 | 50 | 1013.7 |
| 20260902201957 | 96 | 341 | 5.2 | 7.0 | 0.00 | 0.00 | 0.00 | 50 | 1013.7 |
| 20260902201452 | 96 | 272 | 3.5 | 5.2 | 0.00 | 0.00 | 0.00 | 52 | 1013.7 |
| 20260902200951 | 96 | 345 | 2.6 | 3.5 | 0.00 | 0.00 | 0.00 | 51 | 1014.0 |
| 20260902200447 | 96 | 346 | 1.7 | 1.7 | 0.00 | 0.00 | 0.00 | 50 | 1014.0 |
| 20260902195942 | 96 | 335 | 3.5 | 6.1 | 0.00 | 0.00 | 0.00 | 50 | 1013.9 |
| 20260902195437 | 95 | 309 | 5.2 | 7.0 | 0.00 | 0.00 | 0.00 | 51 | 1014.1 |
| 20260902194932 | 96 | 259 | 5.2 | 6.1 | 0.00 | 0.00 | 0.00 | 50 | 1014.2 |
| 20260902194431 | 96 | 253 | 2.6 | 3.5 | 0.00 | 0.00 | 0.00 | 49 | 1014.2 |
| 20260902193926 | 96 | 315 | 3.5 | 3.5 | 0.00 | 0.00 | 0.00 | 50 | 1014.2 |
| 20260902193423 | 95 | 321 | 1.7 | 2.6 | 0.00 | 0.00 | 0.00 | 52 | 1014.0 |
| 20260902192921 | 94 | 290 | 4.3 | 7.0 | 0.00 | 0.00 | 0.00 | 52 | 1013.9 |
| 20260902192420 | 95 | 255 | 7.0 | 7.8 | 0.00 | 0.00 | 0.00 | 50 | 1013.9 |
| 20260902191919 | 94 | 238 | 4.3 | 6.1 | 0.00 | 0.00 | 0.00 | 50 | 1014.0 |
| 20260902191415 | 95 | 264 | 7.8 | 8.7 | 0.00 | 0.00 | 0.00 | 50 | 1014.0 |
| 20260902190910 | 94 | 265 | 7.8 | 11.3 | 0.00 | 0.00 | 0.00 | 51 | 1014.0 |
| 20260902190405 | 95 | 208 | 7.8 | 9.6 | 0.00 | 0.00 | 0.00 | 53 | 1014.0 |
| 20260902185901 | 95 | 329 | 3.5 | 5.2 | 0.00 | 0.00 | 0.00 | 53 | 1014.1 |
| 20260902185356 | 95 | 275 | 5.2 | 6.1 | 0.00 | 0.00 | 0.00 | 51 | 1014.1 |
| 20260902184851 | 95 | 277 | 4.3 | 5.2 | 0.00 | 0.00 | 0.00 | 52 | 1014.2 |
| 20260902184347 | 95 | 273 | 2.6 | 3.5 | 0.00 | 0.00 | 0.00 | 55 | 1014.1 |
| 20260902183842 | 95 | 253 | 4.3 | 5.2 | 0.00 | 0.00 | 0.00 | 52 | 1014.1 |
| 20260902183338 | 95 | 348 | 3.5 | 5.2 | 0.00 | 0.00 | 0.00 | 53 | 1014.1 |
| 20260902182828 | 93 | 255 | 6.1 | 7.8 | 0.00 | 0.00 | 0.00 | 54 | 1014.2 |
| 20260902182325 | 93 | 252 | 7.0 | 9.6 | 0.00 | 0.00 | 0.00 | 55 | 1014.2 |
| 20260902181821 | 93 | 249 | 2.6 | 5.2 | 0.00 | 0.00 | 0.00 | 56 | 1014.2 |
| 20260902181316 | 93 | 334 | 6.1 | 7.8 | 0.00 | 0.00 | 0.00 | 56 | 1014.3 |
| 20260902180810 | 93 | 247 | 5.2 | 7.0 | 0.00 | 0.00 | 0.00 | 57 | 1014.5 |
| 20260902180306 | 93 | 256 | 2.6 | 5.2 | 0.00 | 0.00 | 0.00 | 58 | 1014.5 |
| 20260902175801 | 93 | 286 | 3.5 | 3.5 | 0.00 | 0.00 | 0.00 | 58 | 1014.5 |
| 20260902175256 | 92 | 261 | 4.3 | 6.1 | 0.00 | 0.00 | 0.00 | 58 | 1014.7 |
| 20260902174757 | 92 | 241 | 4.3 | 6.1 | 0.00 | 0.00 | 0.00 | 59 | 1014.6 |
| 20260902174254 | 92 | 243 | 2.6 | 3.5 | 0.00 | 0.00 | 0.00 | 59 | 1014.7 |
| 20260902173749 | 91 | 276 | 1.7 | 2.6 | 0.00 | 0.00 | 0.00 | 60 | 1014.7 |
| 20260902173248 | 91 | 305 | 4.3 | 6.1 | 0.00 | 0.00 | 0.00 | 60 | 1015.1 |
| 20260902172743 | 91 | 283 | 4.3 | 5.2 | 0.00 | 0.00 | 0.00 | 60 | 1015.0 |
| 20260902172243 | 91 | 344 | 1.7 | 1.7 | 0.00 | 0.00 | 0.00 | 61 | 1015.1 |
| 20260902171738 | 90 | 318 | 1.7 | 1.7 | 0.00 | 0.00 | 0.00 | 60 | 1015.2 |
| 20260902171233 | 89 | 256 | 4.3 | 5.2 | 0.00 | 0.00 | 0.00 | 62 | 1015.2 |
| 20260902170730 | 90 | 275 | 3.5 | 5.2 | 0.00 | 0.00 | 0.00 | 61 | 1015.3 |
| 20260902170225 | 89 | 262 | 5.2 | 7.0 | 0.00 | 0.00 | 0.00 | 62 | 1015.0 |
| 20260902165721 | 90 | 257 | 5.2 | 7.0 | 0.00 | 0.00 | 0.00 | 63 | 1014.9 |
| 20260902165214 | 90 | 326 | 1.7 | 2.6 | 0.00 | 0.00 | 0.00 | 63 | 1015.2 |
| 20260902164709 | 89 | 220 | 3.5 | 3.5 | 0.00 | 0.00 | 0.00 | 62 | 1015.0 |